SL-16 DEB, 22333

Orbit data source: Space-Track

SL-16 DEB, 22333 is space debris in LEO originally from a launch on Fri, 25 Dec 1992 UTC launched from the Tyuratam Missile And Space Complex (TTMTR). Debris objects in space refer to the collection of defunct objects orbiting the Earth. Examples of debris include non-operational satellites, rocket bodies, and fragments generated from explosions, collisions, or faulty payload assembly.

Loading next visibility...
Identifier
22333, 1992-093W
Orbit
LEO
Country
Flag of CISCIS
Related business
Manufacturer
Unknown
Mission
Spacecraft
Bus & Motor
Unknown
Mass
Unknown
Launch date (UTC)
1992-12-25 (33 years ago)
Launch vehicle
Unknown
Launch site
Tyuratam Missile And Space Complex (TTMTR)
Object type
Payload
Rocket body
Debris
Shape & HBR
Unknown shape, 0.2 m
Radar Cross Section
Medium (>0.1 m² and <1 m²)

Expand to show TLE details & history
Last TLE update: 10 hours ago

TLE from 10 hours ago
0 SL-16 DEB
1 22333U 92093W   26037.35932280  .00000959  00000-0  26031-3 0  9994
2 22333  71.0044   6.1544 0120920  60.6607 300.6546 14.46000326721156
Epoch: 2026-02-06T08:37Z
TLE epoch observation values (Epoch: 2026-02-06T08:37:25.489Z)
Latitude
-0.0001°
Longitude
100.29983°
Altitude
698.071 km
Speed
7.53 km/s
True Right ascension
00h 24m 37s
True Declination
0° 00' 00"
Sunlit
Object was in daylight at epoch
Visualization orbit readout
Latitude
Unknown
Longitude
Unknown
Altitude
Unknown
Speed
Unknown
Apparent Right ascension
Unknown
Apparent Declination
Unknown
Sunlit
N/A
Visualization observer readout
Local Sidereal Time
20:38:48
Azimuth
Unknown
Elevation
Unknown
Doppler factor
Unknown
Orbital elements
Apogee altitude
822.667 km
Perigee altitude
650.604 km
Semi-major axis
7,114.773 km
Eccentricity
0.01209
Inclination
71.0044°
RAAN
6.1544°
Arg. of periapsis
60.6607°
True anomaly
299.45343°
Mean anomaly
300.6546°
Eccentric anomaly
300.05493°
Mean motion
3.61661 °/min
Orbital period
99.54 mins
BSTAR
0.00026031
Loading maneuver chart data...
Computing Atmospheric mass density...

Documentation

Showing up to 5 results
|